EW3708 Weather Reports


Display with metric or nautical units.
time (UTC)temp
F
wind
direction
speed
MPH
gust
MPH
rain 1hr
in
rain 24hr
in
rain mn
in
humidity
%
barometer
mb
20260905231533 67 229 0.0 2.0 0.00 0.00 0.00 76 1010.7
20260905230032 68 229 0.0 2.0 0.00 0.00 0.00 76 1010.7
20260905224535 68 229 0.0 1.0 0.00 0.00 0.00 73 1010.7
20260905223035 68 229 0.0 2.0 0.00 0.00 0.00 73 1010.6
20260905221531 69 229 1.0 2.0 0.00 0.00 0.00 72 1010.7
20260905220030 70 228 0.0 2.0 0.00 0.00 0.00 70 1010.5
20260905214529 70 252 0.0 3.0 0.00 0.00 0.00 67 1010.5
20260905213029 71 234 1.0 3.0 0.00 0.00 0.00 67 1010.3
20260905211528 71 298 0.0 3.0 0.00 0.00 0.00 65 1010.4
20260905210036 72 308 1.0 4.0 0.00 0.00 0.00 61 1010.1
20260905204528 72 319 1.0 4.0 0.00 0.00 0.00 62 1010.1
20260905203027 72 338 1.0 2.0 0.00 0.00 0.00 62 1010.0
20260905201535 72 302 1.0 5.0 0.00 0.00 0.00 59 1010.1
20260905200038 73 323 1.0 4.0 0.00 0.00 0.00 59 1010.0
20260905194525 73 276 1.0 4.0 0.00 0.00 0.00 58 1009.9
20260905193029 73 297 1.0 4.0 0.00 0.00 0.00 58 1010.0
20260905191525 73 185 1.0 4.0 0.00 0.00 0.00 59 1010.0
20260905190024 73 278 2.0 4.0 0.00 0.00 0.00 57 1010.1
20260905184531 73 169 2.0 4.0 0.00 0.00 0.00 57 1010.2
20260905183027 72 113 0.0 3.0 0.00 0.00 0.00 63 1010.3
20260905181523 72 302 2.0 4.0 0.00 0.00 0.00 61 1010.3
20260905180021 73 62 0.0 3.0 0.00 0.00 0.00 59 1010.5
20260905174530 74 154 1.0 5.0 0.00 0.00 0.00 57 1010.4
20260905173024 73 318 0.0 2.0 0.00 0.00 0.00 60 1010.4
20260905171518 73 294 1.0 4.0 0.00 0.00 0.00 61 1010.5
20260905170016 73 250 2.0 4.0 0.00 0.00 0.00 61 1010.5
20260905164514 72 322 1.0 3.0 0.00 0.00 0.00 67 1010.7
20260905163013 72 293 2.0 5.0 0.00 0.00 0.00 62 1010.9
20260905161511 71 220 1.0 4.0 0.00 0.00 0.00 66 1011.1
20260905160013 70 324 0.0 4.0 0.00 0.00 0.00 72 1011.1
20260905154504 69 236 1.0 4.0 0.00 0.00 0.00 70 1011.0
20260905153003 68 279 1.0 4.0 0.00 0.00 0.00 73 1010.9
20260905151502 68 268 1.0 4.0 0.00 0.00 0.00 72 1010.9
20260905150051 68 305 1.0 4.0 0.00 0.00 0.00 74 1010.9
20260905144552 67 275 1.0 7.0 0.00 0.00 0.00 74 1010.9
20260905143047 67 77 1.0 7.0 0.00 0.00 0.00 77 1010.8
20260905141607 66 308 1.0 4.0 0.00 0.00 0.00 77 1010.8
20260905140054 66 297 2.0 7.0 0.00 0.00 0.00 77 1010.9
20260905134547 65 331 1.0 3.0 0.00 0.00 0.00 80 1010.7
20260905133051 65 167 2.0 4.0 0.00 0.00 0.00 80 1010.7
20260905131552 64 278 0.0 3.0 0.00 0.00 0.00 84 1010.6
20260905130037 63 261 0.0 3.0 0.00 0.00 0.00 87 1010.5
20260905124536 62 197 1.0 3.0 0.00 0.00 0.00 88 1010.6
20260905123034 61 268 1.0 3.0 0.00 0.00 0.00 92 1010.8
20260905121534 61 251 0.0 2.0 0.00 0.00 0.00 93 1010.8
20260905120037 60 251 0.0 1.0 0.00 0.00 0.00 92 1010.8
20260905114555 60 252 0.0 0.0 0.00 0.00 0.00 92 1010.6
20260905113031 60 252 0.0 1.0 0.00 0.00 0.00 91 1010.5
20260905111531 60 252 0.0 0.0 0.00 0.00 0.00 91 1010.4
20260905110032 61 252 0.0 1.0 0.00 0.00 0.00 91 1010.3
20260905104533 61 252 0.0 2.0 0.00 0.00 0.00 91 1010.1
20260905103034 60 252 0.0 2.0 0.00 0.00 0.00 91 1009.8
20260905101529 60 252 1.0 2.0 0.00 0.00 0.00 92 1009.6
20260905100029 60 252 0.0 0.0 0.00 0.00 0.00 91 1009.6
20260905094525 61 252 0.0 0.0 0.00 0.00 0.00 91 1009.4
20260905093029 61 252 0.0 0.0 0.00 0.00 0.00 91 1009.4
20260905091523 61 252 0.0 1.0 0.00 0.00 0.00 91 1009.3
20260905090022 62 252 0.0 0.0 0.00 0.00 0.00 91 1009.3
20260905084519 62 252 0.0 0.0 0.00 0.00 0.00 90 1009.4
20260905083018 62 252 0.0 0.0 0.00 0.00 0.00 91 1009.4
20260905081517 63 252 0.0 0.0 0.00 0.00 0.00 91 1009.6
20260905080021 63 252 0.0 0.0 0.00 0.00 0.00 91 1009.7
20260905074517 63 252 0.0 0.0 0.00 0.00 0.00 91 1009.8
20260905073012 63 252 0.0 0.0 0.00 0.00 0.00 91 1009.7
20260905071511 63 252 0.0 0.0 0.00 0.00 0.00 90 1009.8
20260905070008 64 252 0.0 0.0 0.00 0.00 0.00 91 1009.9
20260905064507 64 252 0.0 0.0 0.00 0.00 0.00 91 1009.9
20260905063005 64 252 0.0 0.0 0.00 0.00 0.00 91 1010.0
20260905061502 64 252 0.0 0.0 0.00 0.00 0.00 91 1010.2
20260905060006 64 252 0.0 0.0 0.00 0.00 0.00 91 1010.2
20260905054604 64 252 0.0 0.0 0.00 0.00 0.00 90 1010.4
20260905053059 65 252 0.0 0.0 0.00 0.00 0.00 90 1010.6
20260905051609 65 252 0.0 0.0 0.00 0.00 0.00 91 1010.7
20260905050105 65 252 0.0 0.0 0.00 0.00 0.00 91 1011.0
20260905044558 65 252 0.0 0.0 0.00 0.03 0.00 90 1011.0
20260905043052 65 252 0.0 0.0 0.00 0.03 0.00 90 1010.9
20260905041552 65 252 0.0 0.0 0.00 0.03 0.00 90 1011.0
20260905040055 65 252 0.0 0.0 0.00 0.03 0.00 90 1010.9
20260905034605 65 252 0.0 1.0 0.00 0.06 0.03 90 1010.8
20260905033102 65 252 0.0 0.0 0.00 0.06 0.03 89 1010.5
20260905031548 65 252 0.0 1.0 0.00 0.06 0.03 89 1010.7
20260905030047 65 252 0.0 0.0 0.00 0.06 0.03 89 1010.8
20260905024550 65 252 0.0 0.0 0.00 0.06 0.03 89 1010.7
20260905023120 65 252 0.0 0.0 0.00 0.06 0.03 89 1010.8
20260905021545 65 252 0.0 0.0 0.00 0.06 0.03 88 1010.8
20260905020044 65 252 0.0 0.0 0.00 0.06 0.03 87 1010.8
20260905014541 66 252 0.0 1.0 0.00 0.21 0.03 86 1010.8
20260905013040 66 252 0.0 1.0 0.00 0.21 0.03 85 1010.7
20260905011546 67 252 0.0 0.0 0.00 0.21 0.03 84 1010.8
20260905010042 67 252 0.0 0.0 0.00 0.21 0.03 85 1010.7
20260905004536 68 252 0.0 0.0 0.00 0.21 0.03 84 1010.9
20260905003036 68 252 0.0 0.0 0.00 0.21 0.03 85 1010.6
20260905001536 68 252 0.0 0.0 0.00 0.21 0.03 84 1010.5
20260905000035 69 252 0.0 1.0 0.00 0.21 0.03 82 1010.3
20260904234536 69 252 0.0 0.0 0.00 0.21 0.03 81 1010.4
20260904233034 70 252 0.0 0.0 0.00 0.21 0.03 79 1010.3